Date,TemperatureHighF,TemperatureAvgF,TemperatureLowF,DewpointHighF,DewpointAvgF,DewpointLowF,HumidityHigh,HumidityAvg,HumidityLow,PressureMaxIn,PressureMinIn,WindSpeedMaxMPH,WindSpeedAvgMPH,GustSpeedMaxMPH,PrecipitationSumIn
2013-1-1,39,36,32,27,25,22,70,65,58,30.41,30.30,4,1,7,0.17
2013-1-2,42,32,26,26,20,16,68,60,41,30.30,30.17,4,0,8,0.02
2013-1-3,42,34,26,27,20,16,67,57,37,30.19,30.08,4,1,10,0.01
2013-1-4,46,42,39,33,30,26,66,63,58,30.30,30.15,5,2,12,0.01
2013-1-5,43,39,37,28,25,22,60,55,50,30.18,30.12,5,2,11,0.00
2013-1-6,46,41,36,34,29,23,69,62,55,30.20,30.01,6,2,13,0.30
2013-1-7,51,46,43,42,37,33,73,70,68,30.16,29.94,4,1,14,1.28
2013-1-8,51,48,43,42,39,34,73,71,66,30.16,29.84,5,1,17,0.31
2013-1-9,50,42,35,39,32,25,71,66,62,29.97,29.69,7,1,19,0.92
2013-1-10,43,38,33,31,28,24,74,68,56,30.08,29.96,5,0,7,0.08
2013-1-11,38,33,28,26,23,17,73,65,46,30.27,30.08,5,1,11,0.01
2013-1-12,39,32,26,25,20,15,70,63,48,30.36,30.26,4,1,7,0.00
2013-1-13,37,30,23,23,18,12,66,61,50,30.43,30.35,4,1,10,0.00
2013-1-14,38,34,31,26,23,20,68,63,58,30.49,30.41,4,1,10,0.03
2013-1-15,39,36,33,28,26,22,69,65,60,30.59,30.49,4,1,9,0.03
2013-1-16,39,36,34,27,25,23,68,64,58,30.58,30.44,5,2,9,0.01
2013-1-17,41,36,33,29,25,23,68,65,59,30.44,30.27,5,2,9,0.00
2013-1-18,45,36,29,29,24,19,67,62,51,30.27,30.21,6,1,10,0.00
2013-1-19,40,35,32,26,24,22,71,65,56,30.31,30.24,4,1,9,0.00
2013-1-20,42,35,31,26,23,22,70,63,48,30.32,30.21,5,1,9,0.00
2013-1-21,42,33,26,24,20,16,66,58,45,30.25,30.10,6,2,12,0.00
2013-1-22,42,35,29,22,19,16,61,52,41,30.13,29.94,6,3,11,0.00
2013-1-23,39,37,35,28,23,17,67,56,43,30.18,29.90,6,2,15,0.10
2013-1-24,45,41,36,34,30,25,70,65,57,30.20,30.07,6,2,10,0.22
2013-1-25,52,46,42,40,35,32,71,67,61,30.09,29.95,3,0,8,0.10
2013-1-26,49,44,41,38,33,31,70,66,60,30.06,29.92,3,0,12,0.18
2013-1-27,45,41,38,34,31,28,70,67,62,30.11,30.02,4,0,8,0.31
2013-1-28,44,42,39,35,33,30,71,69,66,30.15,30.05,3,0,9,0.73
2013-1-29,50,46,44,39,36,34,70,69,62,30.38,30.14,3,0,7,0.41
2013-1-30,52,47,45,42,37,35,70,68,66,30.37,30.33,5,1,10,0.39
2013-1-31,52,48,44,41,38,34,72,68,64,30.35,30.27,3,0,8,0.06
2013-2-1,51,46,40,40,36,31,72,66,55,30.32,30.24,5,1,10,0.05
2013-2-2,52,42,36,36,31,26,72,65,51,30.27,30.19,3,0,6,0.01
2013-2-3,49,44,37,36,33,28,71,66,59,30.27,30.18,5,1,9,0.00
2013-2-4,53,47,43,38,34,31,69,61,49,30.19,29.92,3,0,6,0.00
2013-2-5,55,48,44,39,35,29,76,61,36,29.99,29.87,5,2,14,0.13
2013-2-6,51,46,42,38,34,31,68,62,56,30.05,29.81,7,2,18,0.14
2013-2-7,51,43,32,34,29,21,69,58,33,30.14,29.86,5,1,12,0.12
2013-2-8,48,38,31,32,25,20,73,60,38,30.24,30.14,8,2,15,0.01
2013-2-9,50,42,35,34,30,23,69,62,50,30.25,30.20,3,1,7,0.01
2013-2-10,48,42,36,35,29,26,71,60,45,30.30,30.25,4,1,10,0.00
2013-2-11,49,45,41,35,32,28,68,62,52,30.32,30.26,5,2,10,0.05
2013-2-12,54,48,45,41,37,35,70,67,59,30.38,30.32,4,0,7,0.15
2013-2-13,50,46,38,38,33,26,73,62,49,30.43,30.33,5,1,15,0.07
2013-2-14,50,44,36,37,33,25,71,66,58,30.48,30.43,5,1,10,0.01
2013-2-15,57,47,40,36,34,29,68,60,42,30.44,30.15,5,1,12,0.00
2013-2-16,53,45,38,40,33,28,73,64,45,30.22,30.15,8,1,18,0.09
2013-2-17,51,42,35,35,28,25,70,60,38,30.23,30.08,3,0,8,0.03
2013-2-18,51,43,38,32,29,26,68,57,43,30.08,29.75,5,1,18,0.04
2013-2-19,52,43,35,32,28,19,68,55,27,29.99,29.72,6,1,12,0.04
2013-2-20,50,41,33,33,29,21,68,62,48,30.05,29.97,5,1,12,0.21
2013-2-21,49,44,41,37,33,31,69,65,59,30.11,30.02,3,0,10,0.32
2013-2-22,51,44,37,40,33,27,69,66,58,30.11,29.84,5,2,17,0.87
2013-2-23,48,42,37,35,30,26,70,63,48,30.36,30.01,6,1,20,0.48
2013-2-24,52,45,38,34,29,25,68,54,41,30.37,29.98,5,2,15,0.01
2013-2-25,48,43,39,34,30,26,67,60,45,30.31,29.97,8,1,25,0.39
2013-2-26,52,43,34,34,28,23,70,56,35,30.33,30.19,6,1,16,0.01
2013-2-27,54,48,43,36,32,28,64,54,44,30.25,30.19,5,1,18,0.02
2013-2-28,55,51,46,44,41,35,72,69,64,30.33,30.14,4,1,10,0.79
2013-3-1,59,53,48,46,42,39,72,67,57,30.36,30.26,3,1,10,0.01
2013-3-2,58,48,38,44,37,28,73,66,54,30.25,30.10,6,1,12,0.04
2013-3-3,54,42,34,32,28,24,71,60,39,30.25,30.20,6,1,20,0.01
2013-3-4,56,40,31,29,17,-23,73,49,4,30.22,29.90,5,0,12,0.02
2013-3-5,52,42,34,34,29,20,67,60,45,29.90,29.69,4,1,11,0.15
2013-3-6,48,44,42,37,34,31,69,66,60,29.92,29.59,3,0,9,0.55
2013-3-7,57,46,36,35,29,8,66,53,15,30.03,29.92,5,1,11,0.01
2013-3-8,55,43,33,32,27,15,70,55,21,30.17,30.02,6,1,11,0.00
2013-3-9,55,42,33,33,26,15,70,56,20,30.42,30.17,3,0,10,0.00
2013-3-10,51,44,34,36,31,22,67,61,52,30.43,30.35,3,0,5,0.05
2013-3-11,58,50,45,40,37,34,68,61,45,30.36,30.18,3,0,8,0.05
2013-3-12,58,53,50,43,40,36,67,61,48,30.18,30.10,3,1,10,0.01
2013-3-13,61,53,48,41,38,35,70,58,39,30.16,30.05,3,0,9,0.03
2013-3-14,55,50,47,40,37,32,71,61,45,30.14,30.02,4,1,10,0.02
2013-3-15,63,53,47,42,38,35,67,57,39,30.17,30.13,6,1,15,0.01
2013-3-16,53,47,40,39,35,27,68,62,49,30.13,29.98,7,1,17,0.43
2013-3-17,50,42,37,34,28,20,69,58,35,30.22,30.06,6,1,15,0.59
2013-3-18,54,44,37,37,29,18,65,55,26,30.20,30.14,5,1,14,0.08
2013-3-19,50,43,35,36,30,23,67,60,44,30.14,29.64,3,0,10,0.27
2013-3-20,54,47,38,42,35,26,71,64,50,30.10,29.50,7,2,25,0.77
2013-3-21,47,41,37,33,29,24,69,63,47,30.23,30.09,7,1,18,0.49
2013-3-22,47,39,34,31,27,23,69,61,41,30.32,30.23,6,1,18,0.15
2013-3-23,54,41,34,31,22,-5,67,52,10,30.33,30.23,3,0,10,0.01
2013-3-24,59,45,37,29,20,-5,63,43,7,30.24,30.06,4,0,9,0.00
2013-3-25,64,48,37,32,18,-27,63,40,2,30.07,29.89,4,1,10,0.00
2013-3-26,62,51,46,36,31,23,61,47,26,29.99,29.94,5,1,10,0.01
2013-3-27,64,53,46,40,33,6,67,51,10,29.97,29.88,4,1,15,0.22
2013-3-28,63,54,48,44,36,16,71,54,16,30.09,29.97,4,1,9,0.59
2013-10-18,61,52,45,41,39,36,71,61,46,30.15,30.03,2,0,5,0.00
2013-10-19,63,53,47,45,38,-100,71,60,45,30.11,30.04,2,0,6,0.00
2013-10-20,55,50,48,42,39,36,69,65,53,30.11,30.04,3,1,7,0.00
2013-10-21,60,51,47,43,39,37,70,64,49,30.06,29.96,2,0,5,0.00
2013-10-22,62,52,47,44,40,37,70,64,48,30.01,29.90,2,0,4,0.00
2013-10-23,60,50,43,45,40,33,73,68,56,29.95,29.85,2,1,7,0.01
2013-10-24,55,50,46,42,40,38,73,69,61,30.02,29.94,3,1,7,0.01